Wind_Speed
8 8 8 12 8 8 8 7 4 4 3 7 6 10 13 15 13 13 18 21 21 23 24 24 23 18 19 19 19 19 16 15 12 10 8 6 5 5 4 3 2 2 3 4
8 12 7 6 7 6 5 5 4 4 3 7 5 8 12 14 14 16 17 21 22 24 24 24 24 22 22 22 20 20 19 18 17 11 8 6 5 4 5 4 4 4 2 2
12 11 14 10 7 7 8 4 5 3 9 4 6 9 13 13 13 15 17 19 23 24 27 26 24 26 23 23 21 21 20 18 16 14 10 9 6 4 3 5 5 3 2 3
9 6 6 8 11 9 10 5 3 9 10 1 10 3 15 16 16 16 19 21 22 26 26 26 26 28 26 23 21 20 21 20 17 14 12 11 6 3 3 3 5 5 4 4
11 7 12 14 8 5 5 2 4 7 8 4 11 6 9 15 15 16 20 21 21 24 26 28 27 27 25 25 23 22 22 20 18 16 17 11 10 7 4 4 6 6 7 5
20 21 14 10 5 5 4 6 6 5 5 6 7 5 9 11 17 18 21 22 22 23 25 26 27 26 26 24 26 26 21 24 21 17 17 19 15 10 7 6 4 4 5 5
14 15 13 9 10 3 11 12 3 4 5 7 3 5 6 9 5 18 21 23 23 24 25 26 28 29 28 28 26 25 29 24 23 21 18 19 18 17 12 9 6 6 5 7
8 8 7 8 12 4 12 8 7 4 2 6 4 3 6 6 8 15 24 25 24 24 25 26 26 27 28 28 28 27 23 24 24 25 24 20 19 15 13 13 11 9 9 7
6 9 6 1 6 10 8 8 6 6 3 7 4 3 10 7 8 13 25 26 25 25 24 24 24 24 25 26 27 26 24 23 23 22 23 23 21 20 17 15 17 13 11 10
3 7 4 8 6 7 8 3 7 6 3 4 4 4 4 6 12 13 19 25 26 25 23 22 22 22 23 23 24 24 24 24 23 22 21 21 20 21 20 19 19 17 16 16
15 9 8 7 5 3 6 9 7 7 5 10 8 3 10 7 10 15 18 22 25 25 25 23 22 20 20 19 20 23 24 23 22 23 22 21 20 19 18 20 20 17 15 14
20 7 7 8 3 5 8 10 8 6 3 3 7 6 6 4 6 13 18 20 23 25 24 23 22 21 21 21 21 20 20 20 19 18 19 19 20 21 19 19 18 15 13 14
11 9 10 12 11 7 10 10 10 8 7 6 10 5 5 7 7 12 13 15 19 23 24 23 23 23 22 22 22 21 20 18 16 16 16 16 15 14 14 15 15 15 15 16
7 13 12 11 6 1 13 8 9 11 9 4 8 4 8 8 9 11 13 16 18 21 23 22 22 20 19 19 19 20 18 18 16 16 15 15 14 14 13 13 14 14 16 17
11 12 12 18 7 7 6 7 10 12 14 9 10 7 4 7 11 14 15 16 18 20 21 21 21 18 16 17 18 18 18 17 15 17 18 17 16 15 14 14 15 13 12 10
8 7 5 10 8 10 10 9 8 11 11 11 11 10 5 7 13 14 15 17 19 20 20 20 20 19 17 16 17 17 19 17 16 18 16 16 17 15 14 13 12 13 14 13
5 8 7 12 11 9 12 13 12 9 10 11 11 5 7 8 13 18 18 17 16 20 21 22 21 20 17 16 15 16 19 20 19 19 17 15 14 12 11 10 9 8 8 8
6 7 4 10 5 15 13 3 2 7 5 8 10 7 3 1 13 17 18 17 17 21 23 22 20 20 19 18 18 20 21 21 20 18 17 14 12 11 9 8 7 6 6 7
12 9 7 8 12 15 7 3 4 8 5 7 5 2 4 4 12 14 17 16 20 24 23 22 22 22 23 22 24 24 21 20 19 17 15 13 11 9 7 7 7 7 6 6
9 11 10 10 14 17 10 7 4 2 7 7 6 4 5 6 8 5 22 18 19 24 23 23 23 24 24 24 26 24 22 22 19 16 13 11 9 8 8 8 7 6 6 6
10 9 13 13 15 14 5 2 1 9 2 6 9 9 7 2 5 7 18 22 22 24 24 25 25 25 25 26 24 22 21 18 16 14 12 10 9 8 8 8 9 9 8 6
14 14 14 13 19 19 6 5 4 5 6 7 8 10 10 8 8 6 17 24 26 27 27 27 25 24 24 24 23 21 20 18 16 14 12 12 11 11 12 11 9 8 8 9
6 4 7 6 6 7 11 11 8 6 5 6 8 9 11 11 9 5 14 24 26 28 27 27 27 26 24 24 23 23 21 19 16 15 13 14 15 16 14 12 12 12 11 9
4 6 5 7 8 3 6 8 7 5 5 6 8 9 11 13 16 4 11 21 26 28 28 28 28 29 28 27 25 21 20 18 17 15 15 16 17 16 14 11 10 9 8 7
8 6 5 9 8 8 11 2 6 6 6 7 8 9 11 13 13 14 5 13 24 27 27 29 28 27 30 31 27 24 21 19 17 16 17 17 16 15 14 14 13 9 10 9
17 15 12 10 2 6 3 5 9 9 9 9 11 11 10 11 13 13 12 10 18 26 28 29 28 27 28 31 29 26 22 20 18 18 18 17 16 15 12 13 14 12 11 8
Wind_Direction
232 286 267 349 343 311 303 279 251 179 165 202 204 151 170 174 171 172 181 180 187 191 189 191 193 192 191 193 193 191 196 200 201 209 204 214 220 249 263 281 293 196 93 59
243 245 33 320 288 300 280 242 214 134 182 232 168 160 166 181 185 180 188 190 190 189 195 200 203 200 195 196 197 199 200 203 208 212 212 214 227 247 245 244 245 253 270 303
272 299 318 308 321 298 111 9 158 127 156 214 183 179 184 186 194 185 191 196 198 195 193 196 200 198 197 198 198 200 202 207 212 206 215 227 241 262 278 268 264 264 266 294
281 320 300 305 317 337 81 12 181 158 196 134 211 28 190 188 197 196 193 195 198 200 200 199 199 199 200 201 203 204 210 214 218 219 221 232 230 245 260 264 253 260 276 310
276 291 300 299 334 329 29 191 187 193 227 235 179 257 100 180 199 198 200 194 198 198 201 200 201 202 203 201 204 205 211 215 217 233 226 238 250 251 257 260 268 266 277 301
266 273 275 280 299 301 163 158 157 193 261 231 57 273 158 178 216 196 189 191 192 196 199 202 203 204 204 204 216 215 213 220 224 234 245 243 238 244 244 265 269 286 284 290
251 259 228 244 247 199 220 221 181 226 200 44 73 242 22 183 186 185 182 185 188 191 194 199 201 204 207 207 210 208 219 223 230 239 246 247 256 250 249 259 284 271 289 285
280 200 191 171 238 285 214 274 304 248 285 61 143 303 90 81 156 175 176 181 183 187 193 197 200 202 205 208 211 212 218 223 229 237 242 243 249 241 243 253 253 278 270 277
211 238 138 207 253 251 160 231 339 282 198 261 75 135 131 156 148 183 175 177 182 187 191 194 197 200 203 206 210 213 214 219 224 229 236 241 246 245 239 244 265 272 269 267
219 269 202 140 177 197 270 355 217 209 238 293 95 288 56 150 171 174 177 181 184 187 189 190 194 197 202 205 208 212 216 221 231 229 229 236 237 245 250 259 267 265 263 267
232 244 154 213 210 88 168 217 230 309 293 308 287 30 65 110 174 179 180 189 188 189 192 192 193 196 199 200 206 210 214 217 222 225 222 226 229 235 249 254 262 265 261 258
209 259 238 250 80 290 289 299 283 267 215 252 310 315 95 91 167 173 184 189 193 190 190 190 193 196 202 202 203 205 209 213 216 218 220 224 238 239 243 250 253 253 243 242
178 234 235 233 195 198 228 212 259 308 303 268 288 78 101 119 149 171 172 177 181 183 182 184 190 197 201 205 206 208 211 212 209 214 216 217 220 228 229 231 230 233 249 264
195 255 240 247 254 279 199 205 225 265 287 194 238 333 150 164 169 168 170 172 172 178 177 183 189 194 202 202 208 206 206 210 212 204 206 208 206 211 215 226 234 246 259 264
226 252 235 255 272 257 239 207 210 243 280 294 330 321 356 160 180 175 167 172 170 175 176 180 183 183 191 196 199 203 198 197 200 214 207 205 209 220 230 238 247 246 244 241
215 268 281 250 217 232 228 230 241 243 271 266 274 276 114 127 150 163 171 179 181 181 182 180 184 178 189 197 201 202 198 203 210 202 196 207 218 225 232 233 228 237 242 238
232 255 244 246 198 226 241 235 235 257 257 264 259 342 115 145 163 167 169 177 183 186 182 178 182 183 187 185 178 175 178 182 183 185 193 198 199 204 213 212 213 211 206 211
259 226 237 258 238 241 255 40 279 273 8 338 285 27 20 100 178 178 180 178 177 176 176 178 177 173 167 163 157 159 160 167 170 171 176 180 186 197 206 210 214 217 217 221
224 273 250 246 238 251 197 175 236 221 125 17 338 340 45 163 156 177 188 187 177 172 173 172 169 164 163 162 165 165 159 161 165 171 177 185 194 198 207 216 222 227 226 221
224 237 266 225 252 258 270 89 355 267 182 36 22 19 3 176 197 124 188 188 181 177 172 168 164 162 159 158 163 162 163 169 174 178 178 182 189 198 206 216 214 205 172 140
210 231 230 235 245 246 106 58 43 219 85 56 44 25 7 263 38 2 187 185 183 179 174 169 165 163 160 161 163 162 170 171 174 175 179 185 191 192 185 173 158 146 146 142
267 257 238 242 258 236 358 147 250 67 87 50 44 26 6 333 300 282 180 185 182 180 177 172 164 164 164 164 167 168 172 176 177 178 180 173 164 149 154 154 150 144 134 124
252 341 314 329 2 59 56 77 83 83 78 37 34 19 11 6 355 241 195 191 189 185 182 175 171 167 168 173 176 175 180 177 174 172 164 156 153 153 150 148 138 123 117 115
188 5 271 334 155 65 109 76 60 42 41 23 22 18 14 16 17 352 207 201 197 192 188 182 180 173 173 178 182 186 182 174 171 164 157 155 155 151 140 130 127 128 125 121
292 344 312 281 263 263 219 231 359 359 7 2 1 5 8 13 16 16 264 220 206 201 196 190 189 184 179 180 185 184 185 175 164 160 154 152 155 151 144 149 139 139 142 132
252 246 245 248 74 283 279 266 315 323 336 342 340 342 347 353 355 359 356 242 216 208 201 198 194 188 185 183 185 183 183 172 166 158 158 162 161 159 159 144 143 132 124 114
Height
1505 1500 1493 1485 1486 1490 1490 1489 1490 1486 1488 1491 1493 1498 1507 1513 1516 1519 1521 1525 1530 1534 1539 1542 1546 1552 1556 1560 1563 1565 1568 1571 1572 1573 1575 1577 1578 1579 1579 1580 1579 1579 1578 1579
1502 1496 1489 1492 1488 1491 1490 1490 1487 1486 1487 1490 1493 1497 1503 1509 1512 1516 1519 1523 1526 1531 1538 1541 1546 1550 1554 1557 1560 1563 1566 1568 1570 1573 1574 1576 1577 1579 1579 1580 1578 1579 1579 1580
1498 1492 1486 1484 1483 1479 1479 1479 1483 1484 1488 1487 1490 1497 1503 1506 1509 1513 1517 1520 1523 1527 1533 1538 1542 1546 1551 1555 1558 1561 1564 1567 1568 1571 1573 1573 1575 1576 1577 1579 1579 1578 1579 1579
1493 1487 1488 1485 1480 1477 1475 1479 1480 1484 1485 1485 1483 1490 1492 1495 1504 1508 1511 1516 1520 1524 1529 1533 1538 1543 1547 1552 1556 1560 1563 1565 1568 1569 1572 1573 1576 1578 1578 1578 1579 1579 1578 1578
1488 1486 1487 1486 1482 1481 1486 1481 1479 1478 1477 1481 1486 1490 1485 1486 1497 1498 1504 1510 1515 1521 1525 1528 1533 1538 1544 1549 1553 1557 1560 1563 1566 1567 1570 1573 1575 1577 1578 1578 1577 1578 1577 1576
1486 1484 1484 1480 1479 1479 1482 1480 1478 1475 1473 1483 1477 1483 1471 1482 1481 1487 1496 1503 1510 1515 1520 1525 1530 1535 1540 1545 1547 1552 1557 1559 1562 1565 1568 1570 1573 1576 1578 1577 1578 1579 1578 1578
1475 1472 1473 1479 1479 1478 1478 1474 1485 1489 1484 1486 1474 1483 1466 1468 1471 1476 1486 1496 1504 1510 1516 1520 1524 1529 1534 1539 1543 1548 1551 1554 1558 1562 1565 1568 1570 1573 1575 1576 1578 1578 1578 1577
1486 1483 1470 1471 1471 1469 1474 1464 1480 1507 1491 1477 1474 1478 1470 1466 1470 1475 1484 1491 1498 1505 1509 1515 1519 1524 1529 1534 1539 1543 1547 1550 1554 1557 1561 1564 1567 1570 1573 1574 1574 1576 1577 1576
1481 1482 1467 1469 1467 1468 1470 1480 1460 1470 1469 1478 1465 1458 1467 1469 1473 1476 1480 1488 1495 1501 1506 1511 1516 1521 1525 1529 1534 1538 1542 1545 1548 1552 1556 1559 1562 1565 1569 1570 1569 1571 1571 1572
1470 1486 1464 1468 1469 1470 1468 1464 1475 1466 1495 1499 1468 1472 1465 1472 1473 1477 1479 1485 1493 1499 1504 1509 1513 1517 1522 1526 1530 1535 1538 1540 1544 1549 1552 1555 1557 1560 1562 1564 1564 1566 1566 1566
1466 1473 1469 1461 1461 1461 1467 1466 1462 1459 1466 1483 1484 1466 1450 1464 1467 1473 1480 1484 1489 1495 1500 1506 1510 1515 1519 1523 1527 1530 1533 1537 1540 1543 1547 1550 1553 1555 1557 1558 1560 1561 1562 1562
1464 1461 1470 1463 1454 1458 1457 1455 1455 1467 1473 1465 1472 1469 1459 1464 1466 1470 1475 1481 1486 1492 1497 1503 1508 1512 1516 1520 1524 1527 1530 1534 1538 1541 1543 1546 1547 1550 1553 1553 1555 1556 1557 1558
1462 1464 1475 1470 1459 1460 1461 1452 1450 1451 1452 1467 1475 1469 1461 1466 1467 1471 1475 1480 1485 1490 1495 1500 1505 1509 1512 1516 1520 1523 1526 1531 1535 1537 1540 1541 1544 1545 1548 1550 1551 1553 1554 1555
1464 1456 1460 1465 1455 1445 1458 1457 1456 1455 1462 1458 1461 1456 1459 1463 1466 1471 1476 1480 1485 1490 1494 1498 1502 1506 1510 1513 1517 1519 1523 1527 1530 1534 1536 1539 1540 1543 1545 1547 1547 1549 1551 1551
1460 1460 1453 1449 1447 1451 1449 1453 1456 1462 1455 1465 1454 1458 1448 1453 1462 1469 1474 1480 1483 1488 1492 1495 1500 1504 1507 1510 1513 1516 1520 1524 1528 1529 1532 1534 1537 1539 1541 1543 1544 1545 1547 1548
1459 1463 1455 1456 1451 1453 1455 1450 1452 1454 1454 1456 1452 1455 1446 1454 1463 1470 1474 1478 1482 1486 1489 1493 1497 1500 1505 1508 1510 1513 1517 1522 1524 1526 1530 1532 1534 1536 1538 1539 1540 1542 1543 1544
1457 1457 1459 1462 1448 1453 1464 1449 1447 1449 1447 1450 1456 1448 1450 1459 1464 1469 1473 1477 1480 1483 1488 1491 1495 1498 1503 1506 1507 1509 1512 1517 1521 1524 1527 1530 1532 1534 1536 1537 1539 1539 1541 1543
1456 1458 1459 1460 1455 1481 1445 1441 1442 1446 1448 1451 1448 1454 1455 1456 1462 1468 1472 1474 1478 1482 1486 1490 1493 1498 1502 1505 1507 1508 1512 1516 1520 1523 1525 1528 1531 1533 1535 1536 1537 1538 1539 1540
1457 1453 1457 1466 1463 1449 1442 1447 1446 1448 1459 1463 1458 1456 1458 1458 1461 1466 1471 1474 1476 1480 1484 1488 1492 1495 1499 1502 1504 1508 1513 1517 1520 1523 1525 1527 1529 1531 1533 1535 1536 1537 1537 1537
1452 1453 1457 1453 1468 1472 1441 1450 1455 1453 1456 1467 1465 1464 1461 1460 1459 1455 1468 1473 1477 1480 1483 1487 1490 1494 1496 1500 1504 1508 1512 1517 1520 1522 1524 1526 1528 1529 1531 1533 1535 1536 1537 1536
1453 1456 1458 1452 1455 1446 1451 1453 1456 1464 1467 1468 1468 1468 1466 1460 1462 1465 1466 1471 1476 1480 1484 1486 1489 1493 1496 1499 1504 1509 1513 1515 1518 1521 1522 1524 1526 1528 1530 1532 1534 1535 1537 1536
1452 1452 1449 1447 1453 1458 1456 1453 1457 1465 1468 1469 1469 1470 1470 1468 1465 1465 1464 1470 1473 1478 1482 1485 1489 1493 1496 1500 1504 1508 1511 1514 1518 1520 1522 1523 1525 1528 1529 1532 1534 1535 1536 1536
1469 1465 1465 1458 1452 1461 1463 1463 1466 1468 1469 1471 1469 1471 1471 1468 1464 1464 1464 1468 1472 1477 1481 1485 1488 1491 1495 1498 1503 1507 1510 1513 1515 1518 1520 1522 1525 1528 1531 1533 1534 1536 1538 1540
1467 1473 1468 1467 1461 1466 1468 1470 1471 1471 1471 1470 1469 1469 1470 1468 1466 1463 1464 1467 1471 1475 1480 1485 1488 1488 1491 1496 1501 1505 1508 1511 1514 1516 1518 1521 1525 1528 1532 1535 1538 1539 1540 1541
1467 1475 1469 1467 1465 1468 1468 1470 1473 1472 1471 1469 1469 1469 1468 1468 1468 1467 1465 1467 1470 1474 1479 1482 1486 1488 1488 1492 1497 1502 1507 1510 1512 1515 1519 1523 1527 1531 1534 1537 1537 1538 1538 1540
1468 1465 1464 1459 1463 1466 1465 1469 1471 1470 1469 1468 1469 1469 1469 1467 1467 1467 1466 1466 1467 1471 1475 1478 1482 1485 1487 1490 1493 1499 1504 1508 1511 1515 1520 1524 1528 1531 1534 1534 1534 1536 1538 1540